カタログに戻る

DELTA 1 DEB

運用中PO
NORAD 7957·DEBRIS·🇺🇸 United States

打ち上げ Jul 23, 1972 から Vandenberg Space Force Base

Loading…

次のパス (今後24時間)

TLE

最新Source: Space-Track

元期: Sep 14, 2026, 01:12 UTC

1 07957U 72058CM  26257.05009826  .00000565  00000-0  30575-3 0  9991
2 07957  98.8920 102.4753 0510663 314.4232  41.6169 13.65432559821199

AllMySatでDELTA 1 DEBをリアルタイム追跡

Download on the App Store